Regional Weather Roundup
Issued by NWS Charleston, WV

Home | Current Version | Previous Version | Graphics & Text | Print | Product List | Glossary On
Versions: 1 2 3 4 5 6 7 8 9 10 11 12 13 14 15 16 17 18 19 20 21 22 23 24 25 26 27 28 29 30 31 32 33 34 35 36 37 38 39 40 41 42 43 44 45 46 47 48 49 50
000
ASUS41 KRLX 311810
RWRRLX
West Virginia Regional Weather Roundup
National Weather Service Charleston WV
200 PM EDT FRI JUL 31 2015

Note: "fair" indicates few or no clouds below 12,000 feet with no
significant weather and/or obstructions to visibility.

WVZ003-311900-
Northern Panhandle of West Virginia

CITY           SKY/WX    TMP DP  RH WIND       PRES   REMARKS
WHEELING       PTSUNNY   84  53  34 W14G23    29.98F
$$

WVZ009-311900-
Northwest West Virginia

CITY           SKY/WX    TMP DP  RH WIND       PRES   REMARKS
PARKERSBURG    MOSUNNY   87  57  35 VRB6      30.02F
$$

WVZ006-311900-
Western West Virginia

CITY           SKY/WX    TMP DP  RH WIND       PRES   REMARKS
HUNTINGTON     MOSUNNY   85  56  37 SW9       30.03F
$$

WVZ015-311900-
West Central West Virginia

CITY           SKY/WX    TMP DP  RH WIND       PRES   REMARKS
CHARLESTON     MOSUNNY   85  58  39 VRB6      30.03F
$$

WVZ022-031-311900-
North Central West Virginia

CITY           SKY/WX    TMP DP  RH WIND       PRES   REMARKS
CLARKSBURG     MOSUNNY   82  59  45 W9        30.01F
MORGANTOWN     MOSUNNY   85  56  37 SW10G17   30.01F
$$

WVZ025-035-042-045-311900-
Southern West Virginia

CITY           SKY/WX    TMP DP  RH WIND       PRES   REMARKS
BECKLEY        MOSUNNY   77  54  44 W7        30.11F
LOGAN            N/A     81  59  47 W6        30.05F
BLUEFIELD      SUNNY     79  54  41 VRB5      30.14F
LEWISBURG      MOSUNNY   80  50  35 CALM      30.09F
$$

WVZ047-311900-
Northern Mountains of West Virginia

CITY           SKY/WX    TMP DP  RH WIND       PRES   REMARKS
ELKINS         PTSUNNY   78  56  46 N6        30.06F
$$

WVZ052-311900-
Eastern Panhandle of West Virginia

CITY           SKY/WX    TMP DP  RH WIND       PRES   REMARKS
MARTINSBURG    SUNNY     86  54  33 NW10      29.95F
PETERSBURG     MOSUNNY  N/A N/A N/A NW7       29.98F
$$



USA.gov is the U.S. government's official web portal to all federal, state and local government web resources and services.